Voltar ao catálogo

TIANHUI 6B

AtivoCiênciaSSO
NORAD 55839·PAYLOAD·🇨🇳 China

Lançado Mar 9, 2023 de Taiyuan Satellite Launch Center

Loading…

Próximas Passagens (próximas 24 horas)

TLE

AtualizadoSource: Space-Track

Época: Sep 14, 2026, 14:44 UTC

1 55839U 23030D   26257.61429404 -.00000116  00000-0 -48007-4 0  9993
2 55839  99.0124 264.7476 0002615 144.9313 215.2025 14.01326683179910

Acompanhe TIANHUI 6B em tempo real com AllMySat

Download on the App Store